Location: Azul
(36.7830°S, 59.8500°W)
Time: 21:05:50
(UTC-03:00)

ISS - Pass Details

Date: 14 February 2020
Orbit: 415 x 422 km, 51.6° (Epoch: 27 February)

Event Time Altitude Azimuth Distance (km) Brightness Sun altitude
Rises 22:00:42 0° 298° (WNW) 2,366 0.4 -22.7°
Reaches altitude 10° 22:02:51 10° 291° (WNW) 1,507 -0.6 -23.1°
Maximum altitude 22:06:07 44° 217° (SW) 594 -2.6 -23.6°
Enters shadow 22:06:10 44° 214° (SW) 594 -2.7 -23.6°
